Back to catalog

STARLINK-4029

AliveCommunicationsVLEO
NORAD 52685·PAYLOAD·🇺🇸 United States

Launched May 18, 2022 from Cape Canaveral Space Force Station

Loading…

Next Passes (next 24 hours)

TLE

FreshSource: CelesTrak SupGP

Epoch: Sep 14, 2026, 21:37 UTC

1 52685C 22053AF  26257.90118056  .00187730  00000+0  74361-2 0  2575
2 52685  53.1607  12.9500 0001213  81.9452  95.7419 15.24794347    15

Track STARLINK-4029 in real time with AllMySat

Download on the App Store